Time,TemperatureF,DewpointF,PressureIn,WindDirection,WindDirectionDegrees,WindSpeedMPH,WindSpeedGustMPH,Humidity,HourlyPrecipIn,Conditions,Clouds,dailyrainin,SolarRadiationWatts/m^2,SoftwareType,DateUTC
2013-05-13 00:22:00,59.0,31.0,-100.00,SSW,206,3.0,10.0,35,-99.99,,,0.00,0.000000,,2013-05-13 06:22:00,
2013-05-13 00:32:00,59.0,31.0,-100.00,SSW,206,3.0,10.0,35,-99.99,,,0.00,0.000000,,2013-05-13 06:32:00,
2013-05-13 01:32:00,58.0,29.0,-100.00,SSW,208,4.0,9.0,33,-99.99,,,0.00,0.000000,,2013-05-13 07:32:00,
2013-05-13 02:21:00,55.0,31.0,-100.00,SSE,156,2.0,9.0,40,-99.99,,,0.00,0.000000,,2013-05-13 08:21:00,
2013-05-13 02:32:00,55.0,31.0,-100.00,SSE,156,2.0,9.0,40,-99.99,,,0.00,0.000000,,2013-05-13 08:32:00,
2013-05-13 03:33:00,56.0,30.0,-100.00,SW,218,3.0,9.0,37,-99.99,,,0.00,0.000000,,2013-05-13 09:33:00,
2013-05-13 04:22:00,58.0,31.0,-100.00,SW,218,3.0,12.0,36,-99.99,,,0.00,0.000000,,2013-05-13 10:22:00,
2013-05-13 04:33:00,58.0,31.0,-100.00,SW,218,3.0,12.0,36,-99.99,,,0.00,0.000000,,2013-05-13 10:33:00,
2013-05-13 05:22:00,54.0,31.0,-100.00,South,186,2.0,7.0,41,-99.99,,,0.00,0.000000,,2013-05-13 11:22:00,
2013-05-13 05:32:00,54.0,31.0,-100.00,South,186,2.0,7.0,41,-99.99,,,0.00,0.000000,,2013-05-13 11:32:00,
2013-05-13 06:32:00,48.0,32.0,-100.00,SSE,156,2.0,6.0,54,-99.99,,,0.00,0.000000,,2013-05-13 12:32:00,
2013-05-13 06:42:00,48.0,32.0,-100.00,SSE,156,2.0,6.0,54,-99.99,,,0.00,0.000000,,2013-05-13 12:42:00,
2013-05-13 06:52:00,48.0,32.0,-100.00,SSE,156,2.0,6.0,54,-99.99,,,0.00,0.000000,,2013-05-13 12:52:00,
2013-05-13 07:01:00,48.0,32.0,-100.00,SSE,156,2.0,6.0,54,-99.99,,,0.00,0.000000,,2013-05-13 13:01:00,
2013-05-13 07:32:00,50.0,33.0,-100.00,North,4,2.0,8.0,52,-99.99,,,0.00,22.000000,,2013-05-13 13:32:00,
2013-05-13 09:32:00,64.0,36.0,-100.00,SSW,213,2.0,7.0,35,-99.99,,,0.00,259.000000,,2013-05-13 15:32:00,
2013-05-13 10:22:00,72.0,33.0,-100.00,SW,224,3.0,11.0,24,-99.99,,,0.00,576.000000,,2013-05-13 16:22:00,
2013-05-13 10:33:00,72.0,33.0,-100.00,SW,224,3.0,11.0,24,-99.99,,,0.00,576.000000,,2013-05-13 16:33:00,
2013-05-13 11:32:00,77.0,34.0,-100.00,North,1,3.0,13.0,21,0.00,,,0.00,776.000000,,2013-05-13 17:32:00,
2013-05-13 13:32:00,79.0,29.0,-100.00,WSW,253,4.0,15.0,16,-99.99,,,0.00,932.000000,,2013-05-13 19:32:00,
2013-05-13 13:44:00,79.0,29.0,-100.00,WSW,253,4.0,15.0,16,-99.99,,,0.00,932.000000,,2013-05-13 19:44:00,
2013-05-13 13:53:00,79.0,29.0,-100.00,WSW,253,4.0,15.0,16,-99.99,,,0.00,932.000000,,2013-05-13 19:53:00,
2013-05-13 14:01:00,79.0,29.0,-100.00,WSW,253,4.0,15.0,16,-99.99,,,0.00,932.000000,,2013-05-13 20:01:00,
2013-05-13 14:23:00,78.0,28.0,-100.00,NNW,339,4.0,19.0,16,0.00,,,0.00,616.000000,,2013-05-13 20:23:00,
2013-05-13 14:34:00,78.0,28.0,-100.00,NNW,339,4.0,19.0,16,0.00,,,0.00,616.000000,,2013-05-13 20:34:00,
2013-05-13 14:44:00,78.0,28.0,-100.00,NNW,339,4.0,19.0,16,0.00,,,0.00,616.000000,,2013-05-13 20:44:00,
2013-05-13 14:53:00,78.0,28.0,-100.00,NNW,339,4.0,19.0,16,0.00,,,0.00,616.000000,,2013-05-13 20:53:00,
2013-05-13 15:02:00,78.0,28.0,-100.00,NNW,339,4.0,19.0,16,0.00,,,0.00,616.000000,,2013-05-13 21:02:00,
2013-05-13 15:23:00,78.0,30.0,-100.00,WSW,241,6.0,20.0,17,0.00,,,0.00,648.000000,,2013-05-13 21:23:00,
2013-05-13 15:33:00,78.0,30.0,-100.00,WSW,241,6.0,20.0,17,0.00,,,0.00,648.000000,,2013-05-13 21:33:00,
2013-05-13 15:43:00,78.0,30.0,-100.00,WSW,241,6.0,20.0,17,0.00,,,0.00,648.000000,,2013-05-13 21:43:00,
2013-05-13 15:53:00,78.0,30.0,-100.00,WSW,241,6.0,20.0,17,0.00,,,0.00,648.000000,,2013-05-13 21:53:00,
2013-05-13 16:02:00,78.0,30.0,-100.00,WSW,241,6.0,20.0,17,0.00,,,0.00,648.000000,,2013-05-13 22:02:00,
2013-05-13 16:32:00,78.0,28.0,-100.00,WSW,244,5.0,16.0,16,0.00,,,0.00,734.000000,,2013-05-13 22:32:00,
2013-05-13 16:43:00,78.0,28.0,-100.00,WSW,244,5.0,16.0,16,0.00,,,0.00,734.000000,,2013-05-13 22:43:00,
2013-05-13 16:52:00,78.0,28.0,-100.00,WSW,244,5.0,16.0,16,0.00,,,0.00,734.000000,,2013-05-13 22:52:00,
2013-05-13 17:01:00,78.0,28.0,-100.00,WSW,244,5.0,16.0,16,0.00,,,0.00,734.000000,,2013-05-13 23:01:00,
2013-05-13 17:23:00,77.0,27.0,-100.00,WSW,253,5.0,22.0,16,0.00,,,0.00,709.000000,,2013-05-13 23:23:00,
2013-05-13 17:34:00,77.0,27.0,-100.00,WSW,253,5.0,22.0,16,0.00,,,0.00,709.000000,,2013-05-13 23:34:00,
2013-05-13 17:42:00,77.0,27.0,-100.00,WSW,253,5.0,22.0,16,0.00,,,0.00,709.000000,,2013-05-13 23:42:00,
2013-05-13 17:54:00,77.0,27.0,-100.00,WSW,253,5.0,22.0,16,0.00,,,0.00,709.000000,,2013-05-13 23:54:00,
2013-05-13 18:02:00,77.0,27.0,-100.00,WSW,253,5.0,22.0,16,0.00,,,0.00,709.000000,,2013-05-14 00:02:00,
2013-05-13 18:22:00,73.0,30.0,-100.00,WSW,240,5.0,22.0,20,0.00,,,0.00,264.000000,,2013-05-14 00:22:00,
2013-05-13 18:32:00,73.0,30.0,-100.00,WSW,240,5.0,22.0,20,0.00,,,0.00,264.000000,,2013-05-14 00:32:00,
2013-05-13 18:42:00,73.0,30.0,-100.00,WSW,240,5.0,22.0,20,0.00,,,0.00,264.000000,,2013-05-14 00:42:00,
2013-05-13 18:51:00,73.0,30.0,-100.00,WSW,240,5.0,22.0,20,0.00,,,0.00,264.000000,,2013-05-14 00:51:00,
2013-05-13 19:01:00,73.0,30.0,-100.00,WSW,240,5.0,22.0,20,0.00,,,0.00,264.000000,,2013-05-14 01:01:00,
2013-05-13 19:32:00,70.0,28.0,-100.00,WSW,239,5.0,20.0,21,0.00,,,0.00,65.000000,,2013-05-14 01:32:00,
2013-05-13 19:43:00,70.0,28.0,-100.00,WSW,239,5.0,20.0,21,0.00,,,0.00,65.000000,,2013-05-14 01:43:00,
2013-05-13 19:53:00,70.0,28.0,-100.00,WSW,239,5.0,20.0,21,0.00,,,0.00,65.000000,,2013-05-14 01:53:00,
2013-05-13 20:01:00,70.0,28.0,-100.00,WSW,239,5.0,20.0,21,0.00,,,0.00,65.000000,,2013-05-14 02:01:00,
2013-05-13 20:22:00,67.0,29.0,-100.00,WSW,238,4.0,17.0,24,0.00,,,0.00,26.000000,,2013-05-14 02:22:00,
2013-05-13 20:32:00,67.0,29.0,-100.00,WSW,238,4.0,17.0,24,0.00,,,0.00,26.000000,,2013-05-14 02:32:00,
2013-05-13 20:42:00,67.0,29.0,-100.00,WSW,238,4.0,17.0,24,0.00,,,0.00,26.000000,,2013-05-14 02:42:00,
2013-05-13 20:52:00,67.0,29.0,-100.00,WSW,238,4.0,17.0,24,0.00,,,0.00,26.000000,,2013-05-14 02:52:00,
2013-05-13 21:01:00,67.0,29.0,-100.00,WSW,238,4.0,17.0,24,0.00,,,0.00,26.000000,,2013-05-14 03:01:00,
2013-05-13 21:21:00,63.0,35.0,-100.00,SW,235,3.0,14.0,35,0.00,,,0.00,6.000000,,2013-05-14 03:21:00,
2013-05-13 21:33:00,63.0,35.0,-100.00,SW,235,3.0,14.0,35,0.00,,,0.00,6.000000,,2013-05-14 03:33:00,
2013-05-13 21:42:00,63.0,35.0,-100.00,SW,235,3.0,14.0,35,0.00,,,0.00,6.000000,,2013-05-14 03:42:00,
2013-05-13 21:53:00,63.0,35.0,-100.00,SW,235,3.0,14.0,35,0.00,,,0.00,6.000000,,2013-05-14 03:53:00,
2013-05-13 22:02:00,63.0,35.0,-100.00,SW,235,3.0,14.0,35,0.00,,,0.00,6.000000,,2013-05-14 04:02:00,
2013-05-13 22:32:00,63.0,33.0,-100.00,SW,233,4.0,14.0,32,0.00,,,0.00,0.000000,,2013-05-14 04:32:00,
2013-05-13 22:43:00,63.0,33.0,-100.00,SW,233,4.0,14.0,32,0.00,,,0.00,0.000000,,2013-05-14 04:43:00,
2013-05-13 22:53:00,63.0,33.0,-100.00,SW,233,4.0,14.0,32,0.00,,,0.00,0.000000,,2013-05-14 04:53:00,
2013-05-13 23:01:00,63.0,33.0,-100.00,SW,233,4.0,14.0,32,0.00,,,0.00,0.000000,,2013-05-14 05:01:00,
2013-05-13 23:22:00,63.0,30.0,-100.00,SW,235,4.0,16.0,29,0.00,,,0.00,0.000000,,2013-05-14 05:22:00,
2013-05-13 23:32:00,63.0,30.0,-100.00,SW,235,4.0,16.0,29,0.00,,,0.00,0.000000,,2013-05-14 05:32:00,
2013-05-13 23:42:00,63.0,30.0,-100.00,SW,235,4.0,16.0,29,0.00,,,0.00,0.000000,,2013-05-14 05:42:00,
2013-05-13 23:52:00,63.0,30.0,-100.00,SW,235,4.0,16.0,29,0.00,,,0.00,0.000000,,2013-05-14 05:52:00,